^^

..:: Storico WU ::..




Lo storico viene creato da WUnderground con i dati che la stazione Meteomincio invia al loro server. L' aggiornamento viene fatto ogni 5 minuti circa, tuttavia possono esserci intervalli pił ampi a causa di errori, interruzioni di servizio o problemi nell' invio tramite FTP.


Storico stazione MeteoMincio
Giorno Sommario per Settembre 05, 2022 Unità:  Inglese    Metrico   Entrambi
Giorno Settimana Mese Anno
  Max: Min: Media:
Temperatura: 86 °F 66.2 °F 75.7 °F
Dew Point: 71.6 °F 62.6 °F 66.7 °F
Umidità: 92% 52% 76%
Velocità vento: 7.5mph 0mph 2.8mph
Raffica: 9.3mph - -
Direzione- - East
Pressione: 30.2 in 30.1 in -
Precipitazioni: 0 in    
 
 
Tabulato Dati per Settembre 05, 2022
Ora Temperatura Dew Point Pressione Direzione Velocità vento Raffica Umidità Intensità pioggia (oraria) Info solare Situazione
00:04 69.8 °F 64.4 °F 30.1 in NE 2.5 mph 5 mph 86% 0 in 0.00 W/m2 unknown
00:09 69.8 °F 64.4 °F 30.1 in ENE 2.5 mph 3.7 mph 85% 0 in 0.00 W/m2 unknown
00:14 69.8 °F 64.4 °F 30.1 in ENE 3.1 mph 3.7 mph 84% 0 in 0.00 W/m2 unknown
00:19 69.8 °F 64.4 °F 30.1 in ENE 6.2 mph 8.1 mph 84% 0 in 0.00 W/m2 unknown
00:24 69.8 °F 64.4 °F 30.2 in ENE 3.1 mph 8.1 mph 84% 0 in 0.00 W/m2 unknown
00:29 69.8 °F 64.4 °F 30.2 in ENE 5.6 mph 6.8 mph 83% 0 in 0.00 W/m2 unknown
00:34 69.8 °F 64.4 °F 30.2 in ENE 5 mph 6.8 mph 84% 0 in 0.00 W/m2 unknown
00:39 69.8 °F 64.4 °F 30.2 in ENE 5 mph 6.8 mph 84% 0 in 0.00 W/m2 unknown
00:44 69.8 °F 64.4 °F 30.2 in ENE 5 mph 6.8 mph 84% 0 in 0.00 W/m2 unknown
00:49 69.8 °F 64.4 °F 30.2 in ENE 3.1 mph 6.8 mph 85% 0 in 0.00 W/m2 unknown
00:54 69.8 °F 64.4 °F 30.2 in NNE 1.2 mph 5 mph 85% 0 in 0.00 W/m2 unknown
00:59 69.8 °F 64.4 °F 30.2 in NE 2.5 mph 3.7 mph 85% 0 in 0.00 W/m2 unknown
01:04 69.8 °F 64.4 °F 30.2 in NE 3.1 mph 3.7 mph 86% 0 in 0.00 W/m2 unknown
01:09 69.8 °F 66.2 °F 30.2 in NE 3.7 mph 3.7 mph 86% 0 in 0.00 W/m2 unknown
01:14 69.8 °F 66.2 °F 30.2 in NE 4.3 mph 5 mph 86% 0 in 0.00 W/m2 unknown
01:19 69.8 °F 64.4 °F 30.2 in NE 4.3 mph 5 mph 86% 0 in 0.00 W/m2 unknown
01:24 69.8 °F 66.2 °F 30.2 in NE 4.3 mph 6.8 mph 87% 0 in 0.00 W/m2 unknown
01:29 69.8 °F 66.2 °F 30.2 in NE 5 mph 6.8 mph 87% 0 in 0.00 W/m2 unknown
01:34 69.8 °F 64.4 °F 30.2 in NE 3.1 mph 6.8 mph 87% 0 in 0.00 W/m2 unknown
01:39 69.8 °F 64.4 °F 30.2 in NE 3.7 mph 3.7 mph 87% 0 in 0.00 W/m2 unknown
01:44 69.8 °F 66.2 °F 30.2 in NE 3.1 mph 3.7 mph 88% 0 in 0.00 W/m2 unknown
01:49 68 °F 64.4 °F 30.2 in NE 2.5 mph 3.7 mph 88% 0 in 0.00 W/m2 unknown
01:54 68 °F 64.4 °F 30.2 in NE 2.5 mph 3.7 mph 88% 0 in 0.00 W/m2 unknown
01:59 68 °F 64.4 °F 30.2 in NE 3.1 mph 3.7 mph 88% 0 in 0.00 W/m2 unknown
02:04 68 °F 64.4 °F 30.2 in NE 3.7 mph 5 mph 88% 0 in 0.00 W/m2 unknown
02:09 68 °F 64.4 °F 30.2 in ENE 3.1 mph 5 mph 89% 0 in 0.00 W/m2 unknown
02:14 68 °F 64.4 °F 30.2 in NE 3.1 mph 3.7 mph 89% 0 in 0.00 W/m2 unknown
02:19 68 °F 64.4 °F 30.2 in NE 3.1 mph 3.7 mph 89% 0 in 0.00 W/m2 unknown
02:24 68 °F 64.4 °F 30.2 in NE 3.1 mph 3.7 mph 89% 0 in 0.00 W/m2 unknown
02:29 68 °F 64.4 °F 30.2 in NE 3.1 mph 5 mph 90% 0 in 0.00 W/m2 unknown
02:34 68 °F 64.4 °F 30.2 in ENE 3.7 mph 5 mph 90% 0 in 0.00 W/m2 unknown
02:39 68 °F 64.4 °F 30.2 in ENE 3.7 mph 5 mph 90% 0 in 0.00 W/m2 unknown
02:44 68 °F 64.4 °F 30.2 in NE 3.7 mph 6.8 mph 90% 0 in 0.00 W/m2 unknown
02:49 68 °F 64.4 °F 30.2 in ENE 3.7 mph 6.8 mph 90% 0 in 0.00 W/m2 unknown
02:54 68 °F 66.2 °F 30.2 in ENE 1.9 mph 5 mph 90% 0 in 0.00 W/m2 unknown
02:59 68 °F 64.4 °F 30.2 in ENE 2.5 mph 3.7 mph 90% 0 in 0.00 W/m2 unknown
03:04 68 °F 64.4 °F 30.2 in ENE 2.5 mph 3.7 mph 90% 0 in 0.00 W/m2 unknown
03:09 68 °F 64.4 °F 30.2 in ENE 3.1 mph 3.7 mph 90% 0 in 0.00 W/m2 unknown
03:14 68 °F 64.4 °F 30.2 in ENE 3.1 mph 3.7 mph 91% 0 in 0.00 W/m2 unknown
03:19 68 °F 64.4 °F 30.2 in ENE 3.7 mph 3.7 mph 91% 0 in 0.00 W/m2 unknown
03:24 68 °F 64.4 °F 30.2 in ENE 3.1 mph 5 mph 91% 0 in 0.00 W/m2 unknown
03:29 68 °F 64.4 °F 30.2 in ENE 3.7 mph 5 mph 91% 0 in 0.00 W/m2 unknown
03:34 68 °F 64.4 °F 30.2 in ENE 4.3 mph 5 mph 91% 0 in 0.00 W/m2 unknown
03:39 68 °F 64.4 °F 30.2 in ENE 4.3 mph 5 mph 91% 0 in 0.00 W/m2 unknown
03:44 68 °F 64.4 °F 30.2 in ENE 3.7 mph 5 mph 91% 0 in 0.00 W/m2 unknown
03:49 68 °F 64.4 °F 30.2 in ENE 3.7 mph 5 mph 91% 0 in 0.00 W/m2 unknown
03:54 68 °F 64.4 °F 30.2 in ENE 3.7 mph 5 mph 91% 0 in 0.00 W/m2 unknown
03:59 68 °F 64.4 °F 30.2 in ENE 3.7 mph 5 mph 91% 0 in 0.00 W/m2 unknown
04:04 68 °F 64.4 °F 30.2 in ENE 3.1 mph 5 mph 90% 0 in 0.00 W/m2 unknown
04:09 68 °F 64.4 °F 30.2 in ENE 3.1 mph 3.7 mph 90% 0 in 0.00 W/m2 unknown
04:14 68 °F 64.4 °F 30.2 in ENE 3.1 mph 3.7 mph 90% 0 in 0.00 W/m2 unknown
04:19 68 °F 64.4 °F 30.2 in ENE 2.5 mph 3.7 mph 90% 0 in 0.00 W/m2 unknown
04:24 68 °F 64.4 °F 30.2 in East 2.5 mph 3.7 mph 90% 0 in 0.00 W/m2 unknown
04:29 68 °F 64.4 °F 30.2 in East 2.5 mph 3.7 mph 91% 0 in 0.00 W/m2 unknown
04:34 68 °F 64.4 °F 30.2 in ENE 2.5 mph 3.7 mph 91% 0 in 0.00 W/m2 unknown
04:39 68 °F 64.4 °F 30.2 in ENE 2.5 mph 3.7 mph 91% 0 in 0.00 W/m2 unknown
04:44 68 °F 64.4 °F 30.2 in NE 1.9 mph 3.7 mph 90% 0 in 0.00 W/m2 unknown
04:49 68 °F 64.4 °F 30.2 in NE 1.2 mph 3.1 mph 90% 0 in 0.00 W/m2 unknown
04:54 68 °F 64.4 °F 30.2 in Calm   1.9 mph 90% 0 in 0.00 W/m2 unknown
04:59 68 °F 64.4 °F 30.2 in Calm   1.2 mph 90% 0 in 0.00 W/m2 unknown
05:04 68 °F 64.4 °F 30.2 in Calm   1.2 mph 90% 0 in 0.00 W/m2 unknown
05:09 68 °F 64.4 °F 30.2 in NE 1.2 mph 2.5 mph 90% 0 in 0.00 W/m2 unknown
05:14 68 °F 64.4 °F 30.2 in NE 1.2 mph 2.5 mph 90% 0 in 0.00 W/m2 unknown
05:19 68 °F 64.4 °F 30.2 in NE 1.9 mph 3.1 mph 90% 0 in 0.00 W/m2 unknown
05:24 68 °F 64.4 °F 30.2 in NE 1.9 mph 3.7 mph 90% 0 in 0.00 W/m2 unknown
05:29 68 °F 64.4 °F 30.2 in NE 3.1 mph 3.7 mph 90% 0 in 0.00 W/m2 unknown
05:34 68 °F 64.4 °F 30.2 in NE 3.7 mph 5 mph 90% 0 in 0.00 W/m2 unknown
05:39 68 °F 64.4 °F 30.2 in NE 3.1 mph 5 mph 90% 0 in 0.00 W/m2 unknown
05:44 68 °F 64.4 °F 30.2 in NE 3.1 mph 5 mph 90% 0 in 0.00 W/m2 unknown
05:49 68 °F 64.4 °F 30.2 in ENE 1.9 mph 5 mph 90% 0 in 0.00 W/m2 unknown
05:54 68 °F 64.4 °F 30.2 in ENE 1.9 mph 3.1 mph 90% 0 in 0.00 W/m2 unknown
05:59 66.2 °F 64.4 °F 30.2 in ENE 1.2 mph 2.5 mph 91% 0 in 0.00 W/m2 unknown
06:04 66.2 °F 64.4 °F 30.2 in ENE 2.5 mph 3.7 mph 91% 0 in 0.00 W/m2 unknown
06:09 66.2 °F 64.4 °F 30.2 in ENE 2.5 mph 3.7 mph 91% 0 in 0.00 W/m2 unknown
06:14 66.2 °F 64.4 °F 30.2 in ENE 2.5 mph 3.7 mph 92% 0 in 0.00 W/m2 unknown
06:19 66.2 °F 62.6 °F 30.2 in East 1.9 mph 3.7 mph 92% 0 in 0.00 W/m2 unknown
06:24 66.2 °F 62.6 °F 30.2 in East 1.9 mph 3.7 mph 92% 0 in 0.00 W/m2 unknown
06:29 66.2 °F 62.6 °F 30.2 in East 1.9 mph 3.1 mph 92% 0 in 0.00 W/m2 unknown
06:34 66.2 °F 62.6 °F 30.2 in East 1.9 mph 2.5 mph 92% 0 in 0.00 W/m2 unknown
06:39 66.2 °F 62.6 °F 30.2 in East 1.9 mph 2.5 mph 92% 0 in 0.00 W/m2 unknown
06:44 66.2 °F 62.6 °F 30.2 in ENE 2.5 mph 3.7 mph 92% 0 in 0.00 W/m2 unknown
06:49 66.2 °F 62.6 °F 30.2 in ENE 1.9 mph 3.7 mph 92% 0 in 5.00 W/m2 unknown
06:54 66.2 °F 62.6 °F 30.2 in ENE 1.9 mph 3.1 mph 92% 0 in 9.00 W/m2 unknown
06:59 66.2 °F 64.4 °F 30.2 in ENE 2.5 mph 3.7 mph 92% 0 in 12.00 W/m2 unknown
07:04 66.2 °F 64.4 °F 30.2 in ENE 2.5 mph 3.7 mph 92% 0 in 16.00 W/m2 unknown
07:09 66.2 °F 64.4 °F 30.2 in ENE 1.9 mph 3.7 mph 92% 0 in 18.00 W/m2 unknown
07:14 66.2 °F 64.4 °F 30.2 in East 1.9 mph 3.7 mph 92% 0 in 21.00 W/m2 unknown
07:19 66.2 °F 64.4 °F 30.2 in East 1.2 mph 3.1 mph 92% 0 in 23.00 W/m2 unknown
07:24 66.2 °F 64.4 °F 30.2 in East 1.2 mph 2.5 mph 92% 0 in 25.00 W/m2 unknown
07:29 66.2 °F 64.4 °F 30.2 in East 0.6 mph 2.5 mph 91% 0 in 25.00 W/m2 unknown
07:34 66.2 °F 64.4 °F 30.2 in Calm   1.9 mph 91% 0 in 35.00 W/m2 unknown
07:39 68 °F 64.4 °F 30.2 in Calm     90% 0 in 62.00 W/m2 unknown
07:44 68 °F 64.4 °F 30.2 in SW 1.2 mph 2.5 mph 90% 0 in 74.00 W/m2 unknown
07:49 68 °F 64.4 °F 30.2 in SW 1.2 mph 2.5 mph 90% 0 in 90.00 W/m2 unknown
07:54 68 °F 64.4 °F 30.2 in WSW 1.2 mph 2.5 mph 90% 0 in 105.00 W/m2 unknown
07:59 68 °F 64.4 °F 30.2 in West 1.2 mph 1.9 mph 90% 0 in 123.00 W/m2 unknown
08:04 68 °F 64.4 °F 30.2 in Calm   1.2 mph 89% 0 in 134.00 W/m2 unknown
08:09 69.8 °F 64.4 °F 30.2 in Calm   1.2 mph 89% 0 in 142.00 W/m2 unknown
08:14 69.8 °F 66.2 °F 30.2 in SSE 1.2 mph 2.5 mph 88% 0 in 151.00 W/m2 unknown
08:19 69.8 °F 66.2 °F 30.2 in ESE 1.9 mph 3.1 mph 87% 0 in 151.00 W/m2 unknown
08:24 69.8 °F 66.2 °F 30.2 in ENE 2.5 mph 3.7 mph 87% 0 in 167.00 W/m2 unknown
08:29 69.8 °F 66.2 °F 30.2 in ENE 2.5 mph 3.7 mph 87% 0 in 200.00 W/m2 unknown
08:34 69.8 °F 66.2 °F 30.2 in ENE 3.1 mph 5 mph 87% 0 in 227.00 W/m2 unknown
08:39 71.6 °F 66.2 °F 30.2 in ENE 3.1 mph 5 mph 87% 0 in 239.00 W/m2 unknown
08:44 71.6 °F 66.2 °F 30.2 in ENE 3.1 mph 5 mph 87% 0 in 246.00 W/m2 unknown
08:49 71.6 °F 66.2 °F 30.2 in ENE 2.5 mph 3.7 mph 87% 0 in 250.00 W/m2 unknown
08:54 71.6 °F 66.2 °F 30.2 in East 2.5 mph 3.7 mph 86% 0 in 251.00 W/m2 unknown
08:59 71.6 °F 68 °F 30.2 in East 2.5 mph 5 mph 86% 0 in 265.00 W/m2 unknown
09:04 71.6 °F 68 °F 30.2 in East 3.1 mph 5 mph 86% 0 in 278.00 W/m2 unknown
09:09 73.4 °F 68 °F 30.2 in East 2.5 mph 5 mph 85% 0 in 288.00 W/m2 unknown
09:14 73.4 °F 68 °F 30.2 in ESE 2.5 mph 3.7 mph 85% 0 in 306.00 W/m2 unknown
09:19 73.4 °F 68 °F 30.2 in ESE 2.5 mph 3.7 mph 84% 0 in 320.00 W/m2 unknown
09:24 73.4 °F 68 °F 30.2 in ESE 3.1 mph 5 mph 84% 0 in 332.00 W/m2 unknown
09:29 73.4 °F 68 °F 30.2 in East 3.7 mph 5 mph 84% 0 in 348.00 W/m2 unknown
09:34 73.4 °F 68 °F 30.2 in East 3.1 mph 4.3 mph 83% 0 in 366.00 W/m2 unknown
09:39 73.4 °F 68 °F 30.2 in East 1.9 mph 5 mph 83% 0 in 385.00 W/m2 unknown
09:44 73.4 °F 68 °F 30.2 in ESE 3.1 mph 3.7 mph 83% 0 in 406.00 W/m2 unknown
09:49 75.2 °F 68 °F 30.2 in ESE 2.5 mph 3.7 mph 82% 0 in 417.00 W/m2 unknown
09:54 75.2 °F 68 °F 30.2 in SE 1.9 mph 3.7 mph 82% 0 in 432.00 W/m2 unknown
09:59 75.2 °F 69.8 °F 30.2 in East 3.1 mph 5 mph 83% 0 in 450.00 W/m2 unknown
10:04 75.2 °F 69.8 °F 30.2 in East 4.3 mph 6.2 mph 81% 0 in 459.00 W/m2 unknown
10:09 75.2 °F 69.8 °F 30.2 in East 3.7 mph 6.2 mph 82% 0 in 476.00 W/m2 unknown
10:14 77 °F 69.8 °F 30.2 in East 3.7 mph 6.2 mph 81% 0 in 476.00 W/m2 unknown
10:19 77 °F 69.8 °F 30.2 in ESE 3.1 mph 5 mph 79% 0 in 415.00 W/m2 unknown
10:24 77 °F 69.8 °F 30.2 in ESE 3.1 mph 5 mph 78% 0 in 524.00 W/m2 unknown
10:29 77 °F 69.8 °F 30.2 in ESE 3.1 mph 5 mph 78% 0 in 555.00 W/m2 unknown
10:34 77 °F 69.8 °F 30.2 in ESE 3.1 mph 5 mph 78% 0 in 564.00 W/m2 unknown
10:39 77 °F 69.8 °F 30.2 in East 5.6 mph 6.8 mph 77% 0 in 478.00 W/m2 unknown
10:44 77 °F 69.8 °F 30.2 in East 3.7 mph 6.8 mph 77% 0 in 584.00 W/m2 unknown
10:49 78.8 °F 69.8 °F 30.2 in ESE 4.3 mph 5 mph 77% 0 in 570.00 W/m2 unknown
10:54 78.8 °F 69.8 °F 30.2 in East 3.1 mph 5 mph 75% 0 in 494.00 W/m2 unknown
10:59 78.8 °F 69.8 °F 30.2 in ESE 3.7 mph 5 mph 74% 0 in 524.00 W/m2 unknown
11:04 78.8 °F 69.8 °F 30.2 in ESE 2.5 mph 5 mph 75% 0 in 606.00 W/m2 unknown
11:09 78.8 °F 68 °F 30.2 in ESE 2.5 mph 3.7 mph 71% 0 in 594.00 W/m2 unknown
11:14 78.8 °F 69.8 °F 30.2 in East 3.1 mph 5 mph 73% 0 in 659.00 W/m2 unknown
11:19 78.8 °F 69.8 °F 30.2 in ESE 3.1 mph 5 mph 72% 0 in 715.00 W/m2 unknown
11:24 78.8 °F 69.8 °F 30.2 in ESE 3.7 mph 6.2 mph 71% 0 in 714.00 W/m2 unknown
11:29 78.8 °F 69.8 °F 30.2 in SE 4.3 mph 6.2 mph 71% 0 in 647.00 W/m2 unknown
11:34 78.8 °F 68 °F 30.2 in East 4.3 mph 5 mph 69% 0 in 606.00 W/m2 unknown
11:39 80.6 °F 68 °F 30.2 in ESE 3.1 mph 5 mph 69% 0 in 661.00 W/m2 unknown
11:44 80.6 °F 68 °F 30.2 in East 4.3 mph 6.2 mph 68% 0 in 657.00 W/m2 unknown
11:49 80.6 °F 69.8 °F 30.2 in ESE 5 mph 6.2 mph 70% 0 in 656.00 W/m2 unknown
11:54 80.6 °F 69.8 °F 30.2 in East 2.5 mph 6.2 mph 70% 0 in 666.00 W/m2 unknown
11:59 80.6 °F 68 °F 30.2 in ENE 6.2 mph 8.1 mph 67% 0 in 671.00 W/m2 unknown
12:04 80.6 °F 69.8 °F 30.2 in East 6.2 mph 8.1 mph 68% 0 in 679.00 W/m2 unknown
12:09 82.4 °F 69.8 °F 30.2 in NE 3.1 mph 8.1 mph 70% 0 in 691.00 W/m2 unknown
12:14 82.4 °F 69.8 °F 30.2 in ENE 6.2 mph 9.3 mph 66% 0 in 696.00 W/m2 unknown
12:19 82.4 °F 69.8 °F 30.2 in ENE 5.6 mph 8.7 mph 66% 0 in 696.00 W/m2 unknown
12:24 82.4 °F 69.8 °F 30.2 in NE 6.2 mph 8.1 mph 64% 0 in 705.00 W/m2 unknown
12:29 82.4 °F 69.8 °F 30.2 in East 6.8 mph 9.3 mph 64% 0 in 728.00 W/m2 unknown
12:34 82.4 °F 69.8 °F 30.2 in ENE 5 mph 8.7 mph 65% 0 in 731.00 W/m2 unknown
12:39 82.4 °F 69.8 °F 30.2 in NNE 3.1 mph 6.2 mph 67% 0 in 735.00 W/m2 unknown
12:44 82.4 °F 69.8 °F 30.2 in ESE 5 mph 6.8 mph 65% 0 in 740.00 W/m2 unknown
12:49 82.4 °F 69.8 °F 30.2 in NE 5 mph 6.8 mph 65% 0 in 751.00 W/m2 unknown
12:54 84.2 °F 69.8 °F 30.2 in NE 5 mph 6.8 mph 64% 0 in 758.00 W/m2 unknown
12:59 84.2 °F 69.8 °F 30.2 in ENE 6.8 mph 9.3 mph 64% 0 in 740.00 W/m2 unknown
13:04 84.2 °F 69.8 °F 30.2 in ENE 7.5 mph 9.3 mph 63% 0 in 740.00 W/m2 unknown
13:09 84.2 °F 71.6 °F 30.2 in East 7.5 mph 9.3 mph 66% 0 in 749.00 W/m2 unknown
13:14 82.4 °F 69.8 °F 30.2 in East 6.8 mph 9.3 mph 63% 0 in 749.00 W/m2 unknown
13:19 82.4 °F 69.8 °F 30.2 in East 3.1 mph 8.7 mph 65% 0 in 751.00 W/m2 unknown
13:24 84.2 °F 69.8 °F 30.2 in East 5.6 mph 8.1 mph 64% 0 in 747.00 W/m2 unknown
13:29 84.2 °F 69.8 °F 30.2 in East 5.6 mph 8.1 mph 63% 0 in 744.00 W/m2 unknown
13:34 84.2 °F 69.8 °F 30.1 in ENE 5 mph 8.1 mph 61% 0 in 756.00 W/m2 unknown
13:39 84.2 °F 68 °F 30.1 in SE 7.5 mph 9.3 mph 61% 0 in 754.00 W/m2 unknown
13:44 84.2 °F 68 °F 30.1 in East 5 mph 8.7 mph 60% 0 in 751.00 W/m2 unknown
13:49 84.2 °F 68 °F 30.1 in South 5 mph 6.2 mph 60% 0 in 751.00 W/m2 unknown
13:54 84.2 °F 68 °F 30.1 in SSE 5 mph 6.2 mph 58% 0 in 756.00 W/m2 unknown
13:59 84.2 °F 69.8 °F 30.1 in ENE 5 mph 6.8 mph 60% 0 in 756.00 W/m2 unknown
14:04 86 °F 69.8 °F 30.1 in East 3.1 mph 6.8 mph 60% 0 in 745.00 W/m2 unknown
14:09 84.2 °F 68 °F 30.1 in ENE 5 mph 6.8 mph 58% 0 in 742.00 W/m2 unknown
14:14 86 °F 68 °F 30.1 in NNE 5 mph 6.8 mph 57% 0 in 740.00 W/m2 unknown
14:19 86 °F 68 °F 30.1 in ENE 3.7 mph 6.8 mph 58% 0 in 738.00 W/m2 unknown
14:24 84.2 °F 68 °F 30.1 in ENE 4.3 mph 8.1 mph 57% 0 in 742.00 W/m2 unknown
14:29 86 °F 68 °F 30.1 in NE 5 mph 8.1 mph 58% 0 in 735.00 W/m2 unknown
14:34 86 °F 68 °F 30.1 in ENE 5 mph 8.1 mph 58% 0 in 733.00 W/m2 unknown
14:39 86 °F 68 °F 30.1 in NE 3.1 mph 5 mph 57% 0 in 733.00 W/m2 unknown
14:44 86 °F 68 °F 30.1 in NE 3.1 mph 6.2 mph 56% 0 in 726.00 W/m2 unknown
14:49 86 °F 68 °F 30.1 in ESE 5.6 mph 6.8 mph 56% 0 in 722.00 W/m2 unknown
14:54 86 °F 66.2 °F 30.1 in South 5 mph 6.8 mph 54% 0 in 700.00 W/m2 unknown
14:59 86 °F 68 °F 30.1 in ENE 3.7 mph 6.8 mph 57% 0 in 703.00 W/m2 unknown
15:04 86 °F 68 °F 30.1 in NNE 3.7 mph 6.8 mph 55% 0 in 698.00 W/m2 unknown
15:09 86 °F 68 °F 30.1 in East 4.3 mph 6.8 mph 55% 0 in 668.00 W/m2 unknown
15:14 86 °F 68 °F 30.1 in SE 5.6 mph 8.1 mph 55% 0 in 666.00 W/m2 unknown
15:19 86 °F 68 °F 30.1 in East 6.2 mph 8.1 mph 56% 0 in 666.00 W/m2 unknown
15:24 86 °F 68 °F 30.1 in ENE 6.2 mph 8.1 mph 55% 0 in 664.00 W/m2 unknown
15:29 86 °F 66.2 °F 30.1 in NE 5.6 mph 8.1 mph 53% 0 in 656.00 W/m2 unknown
15:34 86 °F 68 °F 30.1 in NE 3.7 mph 8.1 mph 56% 0 in 650.00 W/m2 unknown
15:39 86 °F 68 °F 30.1 in NNE 3.1 mph 6.2 mph 56% 0 in 635.00 W/m2 unknown
15:44 86 °F 68 °F 30.1 in ENE 5 mph 6.8 mph 55% 0 in 621.00 W/m2 unknown
15:49 86 °F 68 °F 30.1 in East 5 mph 6.8 mph 56% 0 in 610.00 W/m2 unknown
15:54 86 °F 68 °F 30.1 in East 5 mph 6.2 mph 56% 0 in 601.00 W/m2 unknown
15:59 86 °F 68 °F 30.1 in ESE 5 mph 6.8 mph 55% 0 in 599.00 W/m2 unknown
16:04 86 °F 68 °F 30.1 in SE 4.3 mph 6.8 mph 55% 0 in 592.00 W/m2 unknown
16:09 86 °F 68 °F 30.1 in ESE 3.7 mph 6.8 mph 55% 0 in 578.00 W/m2 unknown
16:14 86 °F 68 °F 30.1 in East 6.2 mph 8.1 mph 55% 0 in 557.00 W/m2 unknown
16:19 86 °F 68 °F 30.1 in East 6.2 mph 8.1 mph 55% 0 in 545.00 W/m2 unknown
16:24 86 °F 68 °F 30.1 in East 3.7 mph 8.1 mph 55% 0 in 538.00 W/m2 unknown
16:29 86 °F 66.2 °F 30.1 in East 5.6 mph 6.8 mph 54% 0 in 515.00 W/m2 unknown
16:34 86 °F 66.2 °F 30.1 in ESE 5 mph 6.8 mph 54% 0 in 517.00 W/m2 unknown
16:39 86 °F 68 °F 30.1 in ESE 5 mph 6.8 mph 55% 0 in 515.00 W/m2 unknown
16:44 86 °F 68 °F 30.1 in ESE 3.1 mph 6.8 mph 55% 0 in 501.00 W/m2 unknown
16:49 86 °F 68 °F 30.1 in ESE 3.1 mph 5 mph 55% 0 in 487.00 W/m2 unknown
16:54 86 °F 66.2 °F 30.1 in East 3.1 mph 5 mph 54% 0 in 478.00 W/m2 unknown
16:59 86 °F 66.2 °F 30.1 in SSW 1.9 mph 5 mph 54% 0 in 466.00 W/m2 unknown
17:04 86 °F 66.2 °F 30.1 in SE 2.5 mph 3.7 mph 53% 0 in 448.00 W/m2 unknown
17:09 86 °F 66.2 °F 30.1 in ESE 2.5 mph 3.7 mph 52% 0 in 439.00 W/m2 unknown
17:14 86 °F 66.2 °F 30.1 in ESE 3.1 mph 5 mph 53% 0 in 418.00 W/m2 unknown
17:19 86 °F 66.2 °F 30.1 in ESE 3.1 mph 5 mph 53% 0 in 401.00 W/m2 unknown
17:24 86 °F 68 °F 30.1 in ESE 2.5 mph 3.7 mph 54% 0 in 383.00 W/m2 unknown
17:29 86 °F 68 °F 30.1 in ENE 1.9 mph 3.1 mph 55% 0 in 357.00 W/m2 unknown
17:34 86 °F 66.2 °F 30.1 in East 1.9 mph 3.7 mph 54% 0 in 357.00 W/m2 unknown
17:39 86 °F 66.2 °F 30.1 in East 2.5 mph 3.7 mph 53% 0 in 341.00 W/m2 unknown
17:44 86 °F 66.2 °F 30.1 in ESE 1.9 mph 3.7 mph 53% 0 in 302.00 W/m2 unknown
17:49 84.2 °F 66.2 °F 30.1 in ESE 1.9 mph 3.7 mph 53% 0 in 241.00 W/m2 unknown
17:54 84.2 °F 66.2 °F 30.1 in ESE 1.2 mph 3.1 mph 53% 0 in 237.00 W/m2 unknown
17:59 84.2 °F 66.2 °F 30.1 in ESE 1.2 mph 2.5 mph 54% 0 in 237.00 W/m2 unknown
18:04 84.2 °F 68 °F 30.1 in ESE 1.9 mph 3.7 mph 57% 0 in 237.00 W/m2 unknown
18:09 84.2 °F 68 °F 30.1 in East 1.9 mph 3.1 mph 58% 0 in 162.00 W/m2 unknown
18:14 84.2 °F 68 °F 30.1 in ENE 1.9 mph 3.7 mph 58% 0 in 109.00 W/m2 unknown
18:19 84.2 °F 68 °F 30.1 in ENE 1.9 mph 3.7 mph 57% 0 in 155.00 W/m2 unknown
18:24 84.2 °F 68 °F 30.1 in ENE 1.9 mph 3.7 mph 59% 0 in 120.00 W/m2 unknown
18:29 84.2 °F 68 °F 30.1 in NE 1.9 mph 3.1 mph 58% 0 in 155.00 W/m2 unknown
18:34 84.2 °F 66.2 °F 30.1 in NE 1.9 mph 3.7 mph 56% 0 in 125.00 W/m2 unknown
18:39 84.2 °F 66.2 °F 30.1 in NE 1.9 mph 3.1 mph 56% 0 in 88.00 W/m2 unknown
18:44 84.2 °F 66.2 °F 30.1 in NE 1.2 mph 2.5 mph 57% 0 in 88.00 W/m2 unknown
18:49 84.2 °F 68 °F 30.1 in NE 1.2 mph 2.5 mph 59% 0 in 142.00 W/m2 unknown
18:54 84.2 °F 69.8 °F 30.1 in Calm   1.9 mph 64% 0 in 91.00 W/m2 unknown
18:59 82.4 °F 69.8 °F 30.1 in SSW 2.5 mph 3.7 mph 64% 0 in 62.00 W/m2 unknown
19:04 82.4 °F 68 °F 30.1 in SSW 1.9 mph 3.7 mph 63% 0 in 54.00 W/m2 unknown
19:09 82.4 °F 69.8 °F 30.1 in South 1.9 mph 3.7 mph 64% 0 in 47.00 W/m2 unknown
19:14 82.4 °F 69.8 °F 30.1 in South 1.2 mph 3.1 mph 65% 0 in 40.00 W/m2 unknown
19:19 82.4 °F 69.8 °F 30.1 in South 1.2 mph 2.5 mph 66% 0 in 46.00 W/m2 unknown
19:24 82.4 °F 68 °F 30.1 in SSE 1.2 mph 2.5 mph 66% 0 in 46.00 W/m2 unknown
19:29 82.4 °F 68 °F 30.1 in SSE 1.2 mph 2.5 mph 64% 0 in 35.00 W/m2 unknown
19:34 82.4 °F 68 °F 30.1 in SSE 1.2 mph 2.5 mph 65% 0 in 23.00 W/m2 unknown
19:39 80.6 °F 68 °F 30.1 in South 1.2 mph 2.5 mph 65% 0 in 14.00 W/m2 unknown
19:44 80.6 °F 68 °F 30.1 in South 1.2 mph 2.5 mph 66% 0 in 9.00 W/m2 unknown
19:49 80.6 °F 68 °F 30.1 in SSE 1.2 mph 2.5 mph 67% 0 in 5.00 W/m2 unknown
19:54 78.8 °F 68 °F 30.1 in SSE 1.2 mph 2.5 mph 68% 0 in 0.00 W/m2 unknown
19:59 78.8 °F 68 °F 30.1 in SE 1.2 mph 2.5 mph 69% 0 in 0.00 W/m2 unknown
20:04 78.8 °F 68 °F 30.1 in SE 1.9 mph 2.5 mph 70% 0 in 0.00 W/m2 unknown
20:09 78.8 °F 68 °F 30.1 in SE 1.2 mph 2.5 mph 70% 0 in 0.00 W/m2 unknown
20:14 78.8 °F 68 °F 30.1 in Calm   1.9 mph 71% 0 in 0.00 W/m2 unknown
20:19 78.8 °F 68 °F 30.1 in SE 0.6 mph 1.2 mph 71% 0 in 0.00 W/m2 unknown
20:24 77 °F 68 °F 30.1 in Calm   1.2 mph 71% 0 in 0.00 W/m2 unknown
20:29 77 °F 68 °F 30.1 in Calm     72% 0 in 0.00 W/m2 unknown
20:34 77 °F 68 °F 30.1 in SE 0.6 mph 1.2 mph 71% 0 in 0.00 W/m2 unknown
20:39 77 °F 66.2 °F 30.1 in SE 0.6 mph 1.2 mph 73% 0 in 0.00 W/m2 unknown
20:44 77 °F 68 °F 30.1 in ENE 1.9 mph 3.7 mph 74% 0 in 0.00 W/m2 unknown
20:49 77 °F 68 °F 30.1 in ENE 1.2 mph 3.1 mph 75% 0 in 0.00 W/m2 unknown
20:54 77 °F 68 °F 30.1 in ENE 1.2 mph 1.9 mph 75% 0 in 0.00 W/m2 unknown
20:59 77 °F 68 °F 30.1 in NE 1.9 mph 2.5 mph 75% 0 in 0.00 W/m2 unknown
21:04 77 °F 68 °F 30.1 in NNE 1.2 mph 2.5 mph 75% 0 in 0.00 W/m2 unknown
21:09 77 °F 68 °F 30.1 in NNE 1.2 mph 1.9 mph 74% 0 in 0.00 W/m2 unknown
21:14 77 °F 68 °F 30.1 in ENE 1.2 mph 2.5 mph 74% 0 in 0.00 W/m2 unknown
21:19 75.2 °F 66.2 °F 30.1 in ENE 1.2 mph 1.9 mph 74% 0 in 0.00 W/m2 unknown
21:24 75.2 °F 66.2 °F 30.1 in ENE 1.2 mph 1.2 mph 75% 0 in 0.00 W/m2 unknown
21:29 75.2 °F 68 °F 30.1 in ENE 0.6 mph 1.2 mph 77% 0 in 0.00 W/m2 unknown
21:34 75.2 °F 68 °F 30.1 in Calm   1.2 mph 77% 0 in 0.00 W/m2 unknown
21:39 75.2 °F 68 °F 30.1 in Calm     76% 0 in 0.00 W/m2 unknown
21:44 75.2 °F 68 °F 30.1 in Calm     77% 0 in 0.00 W/m2 unknown
21:49 75.2 °F 68 °F 30.1 in Calm     78% 0 in 0.00 W/m2 unknown
21:54 75.2 °F 68 °F 30.1 in Calm     78% 0 in 0.00 W/m2 unknown
21:59 75.2 °F 68 °F 30.1 in Calm     78% 0 in 0.00 W/m2 unknown
22:04 75.2 °F 66.2 °F 30.1 in Calm     78% 0 in 0.00 W/m2 unknown
22:09 73.4 °F 68 °F 30.1 in Calm     79% 0 in 0.00 W/m2 unknown
22:14 73.4 °F 66.2 °F 30.1 in Calm     79% 0 in 0.00 W/m2 unknown
22:19 73.4 °F 68 °F 30.1 in Calm     80% 0 in 0.00 W/m2 unknown
22:24 73.4 °F 68 °F 30.1 in Calm     80% 0 in 0.00 W/m2 unknown
22:29 73.4 °F 66.2 °F 30.1 in Calm     80% 0 in 0.00 W/m2 unknown
22:34 73.4 °F 68 °F 30.1 in Calm     80% 0 in 0.00 W/m2 unknown
22:39 73.4 °F 68 °F 30.1 in ENE 1.2 mph 1.9 mph 80% 0 in 0.00 W/m2 unknown
22:44 73.4 °F 66.2 °F 30.1 in ENE 1.2 mph 2.5 mph 80% 0 in 0.00 W/m2 unknown
22:49 73.4 °F 66.2 °F 30.1 in ENE 1.2 mph 2.5 mph 80% 0 in 0.00 W/m2 unknown
22:54 73.4 °F 68 °F 30.1 in ENE 1.2 mph 2.5 mph 81% 0 in 0.00 W/m2 unknown
22:59 73.4 °F 66.2 °F 30.1 in ENE 1.2 mph 2.5 mph 81% 0 in 0.00 W/m2 unknown
23:04 73.4 °F 66.2 °F 30.1 in Calm   1.9 mph 81% 0 in 0.00 W/m2 unknown
23:09 73.4 °F 66.2 °F 30.1 in Calm     82% 0 in 0.00 W/m2 unknown
23:14 73.4 °F 66.2 °F 30.1 in Calm     82% 0 in 0.00 W/m2 unknown
23:19 73.4 °F 66.2 °F 30.1 in Calm     82% 0 in 0.00 W/m2 unknown
23:24 73.4 °F 66.2 °F 30.1 in Calm     82% 0 in 0.00 W/m2 unknown
23:29 73.4 °F 66.2 °F 30.1 in ENE 3.7 mph 5.6 mph 82% 0 in 0.00 W/m2 unknown
23:34 71.6 °F 66.2 °F 30.1 in East 3.7 mph 6.8 mph 83% 0 in 0.00 W/m2 unknown
23:39 71.6 °F 66.2 °F 30.1 in ENE 3.7 mph 6.2 mph 84% 0 in 0.00 W/m2 unknown
23:44 71.6 °F 66.2 °F 30.1 in ENE 3.7 mph 5 mph 85% 0 in 0.00 W/m2 unknown
23:49 71.6 °F 66.2 °F 30.1 in East 2.5 mph 5 mph 86% 0 in 0.00 W/m2 unknown
23:54 71.6 °F 66.2 °F 30.1 in East 1.9 mph 3.7 mph 86% 0 in 0.00 W/m2 unknown
23:59 71.6 °F 66.2 °F 30.1 in East 1.9 mph 3.7 mph 86% 0 in 0.00 W/m2 unknown
Stazione Meteorologica MeteoMincio Rivalta s/M (MN)
Con i complimenti di Weather Underground - 4 mb



METEO PILLOLE
Il nevaio perenne più meridionale d'Europa sotto i 1500 m
Fondo della Salsa, Teramo, Abruzzo, Italia:
Si estende tra circa 1100 m e circa 1200 m di quota. Riceve neve in grosse quantità per accumuli valanghivi provenienti dalla sovrastante e quasi verticale parete nord del Monte Camicia, 2565 m, nel gruppo montuoso del Gran Sasso d'Italia. Riceve pochissime ore di sole unicamente in piena estate, restando totalmente in ombra per la maggior parte dell'anno.
Share

Non seguire questo link o sarai bannato dal sito!